全球星 M062星 (GLOBALSTAR M062)

导读

GLOBALSTAR M062是全球星(Globalstar)低轨移动通信星座中的一员,由相关国际团队联合推进项目,于2000年2月8日发射入轨。作为全球星系统的组成部分,它运行在近地轨道,为全球范围提供语音通信、数据传输与卫星移动服务,弥补地面网络覆盖盲区。该卫星系统设计初衷是搭建全球化的移动通讯网络,依托多星组网实现全天候、广域互联,为偏远地区、海上用户提供可靠通信支撑,助力全球移动通信网络覆盖延伸。

基本信息
目录编号:
26082
目录名称:
GLOBALSTAR M062
国际标识:
2000-008B
轨道中心:
EARTH
卫星名称:
全球星 M062星
卫星全名:
全球星 M062星 (GLOBALSTAR M062)
卫星状态:
在轨 (已飞行9712 天)
发射日期:
2000-02-08 UTC
国别 :
(GLOB)
星等 :
--
轨道信息
数据来源 国际轨道数据 AOE轨道数据
星历时间 2026-09-10T22:27:01+0800
12小时前
查看轨道信息
2026-09-10T09:00:00+0800
1天前
查看轨道信息
半长轴 7869.936km 7869.938km
偏心率 0.0007488 0.0007611
轨道倾角 51.983° 51.983°
近地点辐角 358.610° 357.376°
升交点赤经 211.209° 212.857°
平近点角 173.192° 184.408°
近地点 1485.905km 1485.811km
远地点 1497.693km 1497.791km
周期 115.802分钟 115.802分钟
每日圈数 12.435005 12.435001
详细信息
固有亮度:
5
最大亮度:
7.9
平衡模式:
三轴稳定
覆盖范围:
全球
运营商:
全球星公司
运营商所在国:
美国
使用方式:
暂无
卫星简介
全球星星座由48颗卫星加8颗备份星组成。这些卫星分布在8个倾角为52度的圆形轨道平面上,每个轨道平面6颗卫星,另有1 颗备用星。轨道高度约为1414km,传输时延和处理时延小于300ms,整个系统的覆盖区为南北纬70度以内的地区。该卫星已退役。
2D轨道图
3D轨道图
轨道高度分析图
轨道倾角分析图
轨道综合分析图
查看轨道综合分析图
与全量物体交会距离演化趋势
与全量物体交会风险概率演化趋势